Aérodrome :
LOGIN :

S'inscrire | Disclaimer

   EN    FR    IT 

 










Légende :    VFR   VFR Marginal   IFR   IFR Intensif   IFR Très Intensif
Visi : 
Plafond : 
>= 8 km
>= 3000ft
5 à 8 km
1000 à 3000 ft
1500m à 5 km
500 à 1000 ft
800 à 1500m
200 à 500 ft
< 800m
< 200 ft
Symboles :   Orages  Brouillard  Fortes neiges  Fortes précipitations  Vent > 20 kt
SIGMETs :   Divers  Orages  Givrage  Turbulence  Onde Orograph.  Cendres Volcan.







- Altitude de l'aérodrome : 218 ft
- Code IATA : LBG
- Voir les cartes d'approche


LFPB - Paris / Le Bourget

DERNIER METAR :
  • 151400Z AUTO 19013KT 150V220 CAVOK 26/07 Q1010 TEMPO 19015G25KT

METARs EXPIRÉS :
  • 151330Z AUTO 16015KT CAVOK 27/07 Q1010 TEMPO 19015G25KT
  • 151300Z AUTO 16015KT CAVOK 26/07 Q1010 TEMPO 19015G25KT
  • 151230Z AUTO 18014KT CAVOK 26/08 Q1010 NOSIG
  • 151200Z AUTO 18013KT 140V200 CAVOK 26/09 Q1010 NOSIG
  • 151130Z AUTO 18014KT 150V210 CAVOK 25/08 Q1010 NOSIG

TAF AMD TAF LFPB
Valide du 15 à 12h jusqu'au 16 à 12h UTC


151221Z 1512/1612 18010KT CAVOK
TEMPO 1512/1515 19015G25KT
BECMG 1516/1518 10005KT
ATIS : +33 1 48 62 43 92
Pas de NOTAMs connus pour ce terrain.



MET'MAP, la Météo Aéronautique d'un coup d'oeil ! - Copyright ORBIFLY Décembre 2007 - Disclaimer

ORBIFLY MET'MAP TEAM :

Programmation & Développement : Alexandra Zaïnal
Conception & Développement : Baudouin d'Aumeries
Co-Programmation & Développement : Marc-Olivier Méhu
Soutien technique & logistique : Manuel Goepfert

Contact : metmap@orbifly.com




SOURCES & CREDITS :

   NOAA